This demonstration page uses our WeatherBlox Daily Observations layout. Learn more.

Left ArrowRight Arrow

Hourly Observations for August 27, 2015

Temp ( °F °C ) Dew Point ( °F °C ) Humidity (%) Winds ( mph kmh ) Pressure ( in mb ) Visibility ( mi km ) Precip ( " mm )
12:53 am 00:53 Clear 78 25.6 60 15.6 54 54 E 8 13 29.99 1016 10 16 0.00 0.00
1:53 am 01:53 Clear 77 25 59 15 54 54 ESE 5 7 29.99 1016 10 16 0.00 0.00
2:53 am 02:53 Clear 75 23.9 60 15.6 60 60 ESE 3 6 29.99 1016 10 16 0.00 0.00
3:53 am 03:53 Clear 73 22.8 60 15.6 64 64 ESE 5 7 29.99 1016 10 16 0.00 0.00
4:53 am 04:53 Clear 73 22.8 60 15.6 64 64 ESE 8 13 29.98 1015 10 16 0.00 0.00
5:53 am 05:53 Clear 73 22.8 59 15 62 62 ESE 8 13 29.98 1015 10 16 0.00 0.00
6:53 am 06:53 Clear 73 22.8 60 15.6 64 64 ESE 9 15 29.97 1015 10 16 0.00 0.00
7:53 am 07:53 Sunny 72 22.2 61 16.1 68 68 ESE 7 11 29.98 1015 10 16 0.00 0.00
8:53 am 08:53 Sunny 77 25 61 16.1 58 58 SE 8 13 29.99 1016 10 16 0.00 0.00
9:53 am 09:53 Sunny 83 28.3 61 16.1 48 48 SE 10 17 30.00 1016 10 16 0.00 0.00
10:53 am 10:53 Sunny 87 30.6 60 15.6 40 40 S 8 13 30.00 1016 10 16 0.00 0.00
11:53 am 11:53 Sunny 91 32.8 59 15 34 34 SSW 10 17 29.99 1016 10 16 0.00 0.00
12:53 pm 12:53 Sunny 94 34.4 55 12.8 27 27 VRB 3 6 29.97 1015 10 16 0.00 0.00
1:53 pm 13:53 Sunny 96 35.6 52 11.1 23 23 SW 10 17 29.93 1014 10 16 0.00 0.00
2:53 pm 14:53 Sunny 97 36.1 49 9.4 20 20 W 8 13 29.91 1013 10 16 0.00 0.00
3:53 pm 15:53 Sunny 99 37.2 48 8.9 18 18 VRB 7 11 29.88 1012 10 16 0.00 0.00
4:53 pm 16:53 Sunny 98 36.7 47 8.3 17 17 undefined N/A 29.85 1011 10 16 0.00 0.00
5:53 pm 17:53 Sunny 98 36.7 47 8.3 17 17 VRB 5 7 29.84 1010 10 16 0.00 0.00
6:53 pm 18:53 Sunny 99 37.2 46 7.8 16 16 SE 13 20 29.83 1010 10 16 0.00 0.00
7:53 pm 19:53 Sunny 95 35 46 7.8 19 19 ESE 14 22 29.83 1010 10 16 0.00 0.00
8:53 pm 20:53 Clear 91 32.8 47 8.3 22 22 ESE 12 19 29.83 1010 10 16 0.00 0.00
9:53 pm 21:53 Clear 87 30.6 50 10 28 28 SE 12 19 29.85 1011 10 16 0.00 0.00
10:53 pm 22:53 Clear 87 30.6 52 11.1 30 30 SSE 16 26 29.86 1011 10 16 0.00 0.00
11:53 pm 23:53 Clear 85 29.4 52 11.1 32 32 SSE 17 28 29.86 1011 10 16 0.00 0.00

Powered by AerisWeather